Regional Weather Roundup
Issued by NWS Little Rock, AR

Home | Current Version | Previous Version | Graphics & Text | Print | Product List | Glossary On
Versions: 1 2 3 4 5 6 7 8 9 10 11 12 13 14 15 16 17 18 19 20 21 22 23 24 25 26 27 28 29 30 31 32 33 34 35 36 37 38 39 40 41 42 43 44 45 46 47 48 49 50
000
ASUS44 KLZK 281105
RWRLZK

WEATHER ROUNDUP FOR ARKANSAS
NATIONAL WEATHER SERVICE LITTLE ROCK AR
600 AM CDT FRI AUG 28 2015

NOTE: "FAIR" INDICATES FEW OR NO CLOUDS BELOW 12,000 FEET WITH NO
SIGNIFICANT WEATHER AND/OR OBSTRUCTIONS TO VISIBILITY.

ARZ001-003-010-029-281200-
NORTHWEST ARKANSAS

CITY           SKY/WX    TMP DP  RH WIND       PRES   REMARKS
FAYETTEVILLE   CLEAR     59  58  96 CALM      30.05R
FORT SMITH     CLEAR     63  60  90 E6        30.03S
BENTONVILLE    CLEAR     63  55  77 CALM      30.05R
ROGERS         CLEAR     63  59  87 SE6       30.06R
SILOAM SPGS    CLEAR     63  54  72 SE3       30.03R
HIGHFILL       CLEAR     62  59  90 CALM      30.05R
SPRINGDALE     CLEAR     63  57  82 E3        30.07
$$

ARZ004-005-016-281200-
NORTH CENTRAL ARKANSAS

CITY           SKY/WX    TMP DP  RH WIND       PRES   REMARKS
BATESVILLE     CLEAR     57  55  94 CALM      30.08R
FLIPPIN        CLEAR     57  54  88 CALM      30.07R
MTN HOME       CLEAR     58  57  97 E3        30.08R
$$

ARZ040-041-281200-
WEST CENTRAL ARKANSAS

CITY           SKY/WX    TMP DP  RH WIND       PRES   REMARKS
MENA           CLOUDY    61  59  94 CALM      30.06F VSB 1/4
MOUNT IDA      CLEAR     58  56  93 CALM      30.04S FOG
$$

ARZ009-017-025-026-028-281200-
NORTHEAST ARKANSAS

CITY           SKY/WX    TMP DP  RH WIND       PRES   REMARKS
JONESBORO      CLEAR     59  58  96 NE6       30.07R
NEWPORT        CLEAR     60  60 100 N3        30.08R FOG
WALNUT RIDGE   PTCLDY    59  55  88 N3        30.08R
BLYTHEVILLE    CLEAR     57  57 100 NE3       30.08R
$$

ARZ022-023-033-042-044-281200-
CENTRAL ARKANSAS

CITY           SKY/WX    TMP DP  RH WIND       PRES   REMARKS
LITTLE ROCK    PTCLDY    64  60  87 CALM      30.06S
N LITTLE ROCK    N/A     64  61  91 NE3       30.06S
JACKSONVILLE   PTCLDY    59  56  92 CALM      30.05S
SEARCY         CLEAR     59  58  96 CALM      30.08R FOG
HOT SPRINGS    CLEAR     61  58  90 E3        30.05F
RUSSELLVILLE   CLEAR     60  59  96 CALM      30.05S
$$

ARZ036-281200-
EAST ARKANSAS

CITY           SKY/WX    TMP DP  RH WIND       PRES   REMARKS
WEST MEMPHIS   CLEAR     61  61 100 CALM      30.05R
$$

ARZ050-053-066-070-073-281200-
SOUTHWEST ARKANSAS

CITY           SKY/WX    TMP DP  RH WIND       PRES   REMARKS
ARKADELPHIA    FAIR      58  58 100 CALM      30.05S
CAMDEN         CLEAR     57  55  94 CALM      30.04R FOG
TEXARKANA      CLEAR     61  60  97 E3        30.04R
EL DORADO      CLEAR     58  56  93 CALM      30.04R
DE QUEEN       FOG       58  58 100 CALM      30.02S VSB 3/4
$$

ARZ056-057-069-281200-
SOUTHEAST ARKANSAS

CITY           SKY/WX    TMP DP  RH WIND       PRES   REMARKS
PINE BLUFF     CLEAR     59  58  96 CALM      30.05R FOG
STUTTGART      CLEAR     61  55  82 N3        30.05S
MONTICELLO     CLEAR     59  59 100 CALM      30.04R

$$





USA.gov is the U.S. government's official web portal to all federal, state and local government web resources and services.